GW3210 Weather Reports


time (UTC)temp
C
wind
direction
speed
KPH
gust
KPH
rain 1hr
cm
rain 24hr
cm
rain mn
cm
humidity
%
barometer
mb
20260509220315 25 270 6.4 14.5 0.00 0.00 0.00 32 1018.7
20260509215336 25 293 6.4 9.7 0.00 0.00 0.00 32 1018.8
20260509214315 25 0 6.4 11.3 0.00 0.00 0.00 35 1019.0
20260509213316 25 315 12.9 17.7 0.00 0.00 0.00 34 1019.2
20260509212315 25 338 9.7 14.5 0.00 0.00 0.00 35 1019.3
20260509211315 24 293 8.0 11.3 0.00 0.00 0.00 35 1019.3
20260509210336 24 315 8.0 14.5 0.00 0.00 0.00 33 1019.3
20260509205315 24 293 8.0 12.9 0.00 0.00 0.00 36 1019.4
20260509204316 23 338 8.0 12.9 0.00 0.00 0.00 36 1019.8
20260509203316 23 0 9.7 14.5 0.00 0.00 0.00 36 1019.9
20260509202316 23 338 8.0 12.9 0.00 0.00 0.00 36 1020.1
20260509201316 23 270 6.4 11.3 0.00 0.00 0.00 35 1020.1
20260509200317 23 293 6.4 12.9 0.00 0.00 0.00 34 1020.2
20260509195338 23 315 4.8 8.0 0.00 0.00 0.00 37 1020.4
20260509194317 23 315 6.4 11.3 0.00 0.00 0.00 37 1020.4
20260509193317 22 248 6.4 11.3 0.00 0.00 0.00 38 1020.7
20260509192318 22 0 8.0 14.5 0.00 0.00 0.00 42 1020.7
20260509191315 21 293 3.2 9.7 0.00 0.00 0.00 40 1020.9
20260509190317 21 270 11.3 14.5 0.00 0.00 0.00 42 1021.1
20260509185338 21 338 4.8 12.9 0.00 0.00 0.00 43 1021.1
20260509184317 21 248 4.8 9.7 0.00 0.00 0.00 43 1021.3
20260509183317 20 293 4.8 11.3 0.00 0.00 0.00 47 1021.4
20260509182317 20 293 3.2 8.0 0.00 0.00 0.00 48 1021.5
20260509181338 19 315 8.0 11.3 0.00 0.00 0.00 50 1021.4
20260509180337 18 248 4.8 6.4 0.00 0.00 0.00 50 1021.4
20260509175337 18 293 4.8 6.4 0.00 0.00 0.00 52 1021.6
20260509174317 18 315 3.2 4.8 0.00 0.00 0.00 55 1021.8
20260509173317 17 270 1.6 4.8 0.00 0.00 0.00 54 1021.8
20260509172317 16 338 6.4 8.0 0.00 0.00 0.00 59 1022.0
20260509171317 16 270 4.8 11.3 0.00 0.00 0.00 59 1022.1
20260509170317 15 338 4.8 8.0 0.00 0.00 0.00 62 1022.0
20260509165317 14 270 4.8 9.7 0.00 0.00 0.00 63 1022.2
20260509164338 13 315 4.8 8.0 0.00 0.00 0.00 64 1022.3
20260509163317 13 293 1.6 4.8 0.00 0.00 0.00 65 1022.3
20260509162317 13 293 4.8 6.4 0.00 0.00 0.00 65 1022.5
20260509161317 12 315 3.2 6.4 0.00 0.00 0.00 66 1022.5
20260509160317 12 68 1.6 1.6 0.00 0.00 0.00 67 1022.5
20260509155317 12 23 1.6 3.2 0.00 0.00 0.00 69 1022.4
20260509154337 11 315 3.2 4.8 0.00 0.00 0.00 69 1022.4
20260509153316 11 0 1.6 4.8 0.00 0.00 0.00 69 1022.6
20260509152317 11 338 3.2 4.8 0.00 0.00 0.00 70 1022.8
20260509151316 11 293 3.2 4.8 0.00 0.00 0.00 70 1023.1
20260509150337 11 0 4.8 6.4 0.00 0.00 0.00 72 1023.1
20260509145317 10 113 1.6 1.6 0.00 0.00 0.00 74 1023.0
20260509144317 10 158 1.6 3.2 0.00 0.00 0.00 76 1022.9
20260509143316 10 0.0 1.6 0.00 0.00 0.00 78 1022.9
20260509142337 10 158 1.6 1.6 0.00 0.00 0.00 81 1022.8
20260509141317 10 158 3.2 4.8 0.00 0.00 0.00 81 1022.7
20260509140317 9 158 1.6 3.2 0.00 0.00 0.00 82 1022.8
20260509135317 9 158 3.2 4.8 0.00 0.00 0.00 82 1022.7
20260509134317 8 135 4.8 6.4 0.00 0.00 0.00 83 1022.7
20260509133317 8 158 4.8 4.8 0.00 0.00 0.00 82 1022.7
20260509132317 8 180 4.8 4.8 0.00 0.00 0.00 78 1022.6
20260509131316 8 203 1.6 3.2 0.00 0.00 0.00 76 1022.6
20260509130337 8 203 3.2 3.2 0.00 0.00 0.00 74 1022.7
20260509125316 8 0.0 0.0 0.00 0.00 0.00 73 1022.7
20260509124316 8 0.0 0.0 0.00 0.00 0.00 72 1022.9
20260509123316 8 0.0 0.0 0.00 0.00 0.00 72 1022.9
20260509122317 8 0.0 0.0 0.00 0.00 0.00 71 1022.9
20260509121316 8 0.0 0.0 0.00 0.00 0.00 69 1022.9
20260509120316 8 0.0 0.0 0.00 0.00 0.00 69 1022.8
20260509115337 8 0.0 0.0 0.00 0.00 0.00 68 1023.0
20260509114337 8 0.0 0.0 0.00 0.00 0.00 68 1023.0
20260509113316 8 0.0 0.0 0.00 0.00 0.00 68 1023.2
20260509112317 9 0.0 0.0 0.00 0.00 0.00 68 1023.3
20260509111316 9 270 1.6 3.2 0.00 0.00 0.00 68 1023.4
20260509110358 9 270 1.6 1.6 0.00 0.00 0.00 67 1023.4
20260509105316 9 270 3.2 3.2 0.00 0.00 0.00 67 1023.5
20260509104316 10 270 1.6 3.2 0.00 0.00 0.00 66 1023.4
20260509103317 10 270 1.6 1.6 0.00 0.00 0.00 66 1023.4
20260509102317 10 270 1.6 3.2 0.00 0.00 0.00 66 1023.4
20260509101317 10 270 3.2 3.2 0.00 0.00 0.00 66 1023.3
20260509100316 10 270 3.2 3.2 0.00 0.00 0.00 66 1023.3
20260509095316 10 270 1.6 3.2 0.00 0.00 0.00 66 1023.4
20260509094316 10 293 1.6 3.2 0.00 0.00 0.00 65 1023.4
20260509093316 10 293 1.6 3.2 0.00 0.00 0.00 65 1023.5
20260509092316 10 0.0 1.6 0.00 0.00 0.00 65 1023.6
20260509091337 10 0.0 0.0 0.00 0.00 0.00 64 1023.7
20260509090316 11 0.0 0.0 0.00 0.00 0.00 64 1023.8
20260509085316 11 0.0 0.0 0.00 0.00 0.00 63 1023.8
20260509084316 11 293 1.6 1.6 0.00 0.00 0.00 63 1024.0
20260509083315 11 293 3.2 3.2 0.00 0.00 0.00 63 1024.1
20260509082316 11 293 3.2 4.8 0.00 0.00 0.00 62 1024.2
20260509081337 11 293 4.8 9.7 0.00 0.00 0.00 62 1024.1
20260509080316 12 293 1.6 3.2 0.00 0.00 0.00 61 1024.2
20260509075316 12 293 3.2 4.8 0.00 0.00 0.00 61 1024.2
20260509074316 12 293 3.2 8.0 0.00 0.00 0.00 60 1024.3
20260509073316 12 293 4.8 6.4 0.00 0.00 0.00 60 1024.3
20260509072317 12 293 4.8 6.4 0.00 0.00 0.00 59 1024.3
20260509071316 12 293 4.8 6.4 0.00 0.00 0.00 59 1024.4
20260509070316 13 293 3.2 4.8 0.00 0.00 0.00 58 1024.3
20260509065317 13 293 4.8 6.4 0.00 0.00 0.00 57 1024.3
20260509064317 13 293 4.8 6.4 0.00 0.00 0.00 57 1024.4
20260509063317 13 293 3.2 6.4 0.00 0.00 0.00 56 1024.3
20260509062316 13 270 4.8 6.4 0.00 0.00 0.00 55 1024.3
20260509061317 13 293 4.8 6.4 0.00 0.00 0.00 54 1024.1
20260509060317 13 270 3.2 6.4 0.00 0.00 0.00 54 1024.0
20260509055317 14 270 4.8 6.4 0.00 0.00 0.00 53 1024.0
20260509054337 14 270 4.8 6.4 0.00 0.00 0.00 52 1023.8
20260509053337 14 315 4.8 8.0 0.00 0.00 0.00 52 1023.8
20260509052317 15 315 9.7 16.1 0.00 0.00 0.00 52 1023.9
20260509051316 15 293 4.8 8.0 0.00 0.00 0.00 52 1023.9
20260509050337 15 338 6.4 9.7 0.00 0.00 0.00 52 1023.9
20260509045316 15 315 4.8 11.3 0.00 0.00 0.00 52 1023.8
20260509044316 15 338 6.4 8.0 0.00 0.00 0.00 52 1023.7
20260509043317 15 0 12.9 16.1 0.00 0.00 0.00 51 1023.8
20260509042317 15 315 4.8 8.0 0.00 0.00 0.00 51 1023.6
20260509041337 15 338 6.4 12.9 0.00 0.00 0.00 50 1023.5
20260509040316 15 315 8.0 14.5 0.00 0.00 0.00 50 1023.5
20260509035337 16 315 12.9 17.7 0.00 0.00 0.00 49 1023.4
20260509034317 16 315 8.0 12.9 0.00 0.00 0.00 47 1023.2
20260509033316 16 315 4.8 8.0 0.00 0.00 0.00 46 1023.1
20260509032316 16 0 8.0 12.9 0.00 0.00 0.00 46 1023.1
20260509031316 16 338 4.8 8.0 0.00 0.00 0.00 45 1023.0
20260509030316 16 315 4.8 6.4 0.00 0.00 0.00 44 1023.0
20260509025336 17 338 6.4 9.7 0.00 0.00 0.00 44 1023.0
20260509024316 17 338 6.4 9.7 0.00 0.00 0.00 44 1022.9
20260509023337 17 338 9.7 16.1 0.00 0.00 0.00 42 1022.9
20260509022316 17 23 4.8 12.9 0.00 0.00 0.00 42 1022.9
20260509021316 17 293 8.0 12.9 0.00 0.00 0.00 41 1022.8
20260509020317 18 0 4.8 6.4 0.00 0.00 0.00 41 1022.9
20260509015316 18 293 6.4 8.0 0.00 0.00 0.00 39 1022.9
20260509014337 18 315 3.2 4.8 0.00 0.00 0.00 38 1022.8
20260509013357 18 0 3.2 6.4 0.00 0.00 0.00 38 1022.9
20260509012316 20 0 4.8 8.0 0.00 0.00 0.00 36 1023.0
20260509011316 20 293 4.8 8.0 0.00 0.00 0.00 35 1023.0
20260509010316 20 293 3.2 6.4 0.00 0.00 0.00 34 1023.1
20260509005316 20 338 8.0 9.7 0.00 0.00 0.00 36 1023.0
20260509004316 20 0 8.0 16.1 0.00 0.00 0.00 36 1023.0
20260509003316 19 270 8.0 11.3 0.00 0.00 0.00 34 1023.1
20260509002316 20 338 8.0 14.5 0.00 0.00 0.00 33 1023.2
20260509001316 20 315 4.8 8.0 0.00 0.00 0.00 33 1023.2
20260509000318 21 338 6.4 9.7 0.00 0.00 0.00 32 1023.3
20260508235357 21 0 8.0 12.9 0.00 0.00 0.00 32 1023.2
20260508234316 21 248 8.0 12.9 0.00 0.00 0.00 32 1023.2
20260508233316 20 315 8.0 12.9 0.00 0.00 0.00 33 1023.3
20260508232315 20 203 3.2 4.8 0.00 0.00 0.00 32 1023.3
20260508231316 20 293 8.0 11.3 0.00 0.00 0.00 33 1023.3
20260508230316 20 293 4.8 9.7 0.00 0.00 0.00 32 1023.4
20260508225336 20 293 9.7 12.9 0.00 0.00 0.00 33 1023.5
20260508224316 20 338 3.2 4.8 0.00 0.00 0.00 34 1023.5
20260508223316 19 203 6.4 9.7 0.00 0.00 0.00 33 1023.5
20260508222316 20 315 3.2 3.2 0.00 0.00 0.00 31 1023.5
20260508221316 19 0 4.8 6.4 0.00 0.00 0.00 35 1023.5